TimeEST,TemperatureF,Dew PointF,Humidity,Sea Level PressureIn,VisibilityMPH,Wind Direction,Wind SpeedMPH,Gust SpeedMPH,PrecipitationIn,Events,Conditions,WindDirDegrees,DateUTC
12:53 AM,42.1,36.0,79,30.33,10.0,Calm,Calm,-,N/A,,Overcast,0,2013-11-21 05:53:00
1:53 AM,42.1,37.0,82,30.33,10.0,Calm,Calm,-,N/A,,Mostly Cloudy,0,2013-11-21 06:53:00
2:53 AM,43.0,37.0,80,30.34,10.0,Calm,Calm,-,N/A,,Overcast,0,2013-11-21 07:53:00
3:53 AM,42.1,37.0,82,30.34,10.0,Calm,Calm,-,N/A,,Overcast,0,2013-11-21 08:53:00
4:53 AM,42.1,36.0,79,30.36,10.0,Calm,Calm,-,N/A,,Overcast,0,2013-11-21 09:53:00
5:53 AM,42.1,36.0,79,30.37,10.0,Calm,Calm,-,N/A,,Overcast,0,2013-11-21 10:53:00
6:53 AM,42.1,35.1,76,30.39,10.0,Calm,Calm,-,N/A,,Overcast,0,2013-11-21 11:53:00
7:53 AM,44.1,36.0,73,30.41,10.0,Calm,Calm,-,N/A,,Overcast,0,2013-11-21 12:53:00
8:53 AM,48.0,35.1,61,30.41,10.0,Variable,3.5,-,N/A,,Mostly Cloudy,0,2013-11-21 13:53:00
9:53 AM,48.9,34.0,56,30.40,10.0,East,3.5,-,N/A,,Overcast,80,2013-11-21 14:53:00
10:53 AM,53.1,36.0,52,30.39,10.0,Calm,Calm,-,N/A,,Mostly Cloudy,0,2013-11-21 15:53:00
11:53 AM,54.0,36.0,51,30.38,10.0,ENE,4.6,-,N/A,,Overcast,70,2013-11-21 16:53:00
12:53 PM,55.9,37.0,49,30.35,10.0,East,3.5,-,N/A,,Overcast,80,2013-11-21 17:53:00
1:53 PM,59.0,37.9,46,30.32,10.0,Calm,Calm,-,N/A,,Overcast,0,2013-11-21 18:53:00
2:53 PM,59.0,39.9,49,30.30,10.0,Calm,Calm,-,N/A,,Overcast,0,2013-11-21 19:53:00
3:53 PM,61.0,41.0,48,30.29,10.0,Calm,Calm,-,N/A,,Mostly Cloudy,0,2013-11-21 20:53:00
4:53 PM,60.1,41.0,49,30.30,10.0,West,4.6,-,N/A,,Partly Cloudy,260,2013-11-21 21:53:00
5:53 PM,55.0,39.9,57,30.30,10.0,Calm,Calm,-,N/A,,Clear,0,2013-11-21 22:53:00
6:53 PM,54.0,41.0,62,30.32,10.0,SSW,3.5,-,N/A,,Partly Cloudy,200,2013-11-21 23:53:00
7:53 PM,53.1,42.1,66,30.33,10.0,SSW,3.5,-,N/A,,Mostly Cloudy,210,2013-11-22 00:53:00
8:53 PM,55.9,45.0,67,30.33,10.0,SSW,4.6,-,N/A,,Overcast,210,2013-11-22 01:53:00
9:53 PM,57.0,48.0,72,30.34,10.0,SSW,4.6,-,N/A,,Overcast,210,2013-11-22 02:53:00
10:53 PM,57.9,50.0,75,30.32,10.0,Variable,4.6,-,N/A,,Overcast,0,2013-11-22 03:53:00
11:21 PM,57.9,50.0,75,30.32,10.0,SSW,3.5,-,N/A,,Overcast,210,2013-11-22 04:21:00
11:53 PM,57.0,48.9,74,30.32,10.0,SW,3.5,-,N/A,,Overcast,220,2013-11-22 04:53:00